GFSMA_sfc_thetae_057.txt.gz
Theta_e
332 331 330 329 330 330 330 330 331 334 334 336 336 336 335 332 333 334 332 342 346 348 349 350 347 345 344 345 346 348 347 348 347 346 345 343 343 344 343 342 342 343 342
332 330 327 328 327 330 330 331 330 331 332 334 334 335 334 333 333 334 334 334 345 347 346 347 346 345 344 344 344 345 347 345 346 346 345 345 343 344 342 341 342 341 341
330 329 328 326 328 329 328 329 328 327 328 330 331 332 332 333 334 335 335 337 340 346 346 344 345 344 344 344 344 344 346 346 345 346 346 345 343 342 343 342 341 340 340
332 330 329 327 326 328 328 329 326 324 326 326 328 330 330 332 334 338 337 336 336 336 342 339 340 343 345 344 344 344 345 345 345 345 345 345 341 342 341 342 341 341 341
334 333 331 330 327 327 327 328 326 326 324 325 327 327 328 330 333 336 335 335 333 337 335 339 342 341 343 344 343 343 344 345 344 345 345 344 341 341 341 341 342 342 341
337 334 334 330 329 328 327 325 326 326 324 326 328 329 328 329 330 331 332 333 332 333 332 331 331 335 342 343 344 344 343 345 345 344 345 344 343 342 342 341 342 341 340
339 335 334 332 330 328 329 328 326 325 323 325 323 322 324 327 328 328 328 329 330 331 330 331 330 330 332 341 341 342 342 343 344 344 343 343 343 342 341 340 341 340 339
341 338 335 334 331 330 327 328 327 323 325 326 325 321 316 319 323 326 326 326 327 329 330 331 330 330 330 331 334 340 340 342 344 344 343 342 342 343 340 341 341 338 338
340 341 337 335 333 333 329 329 329 329 326 327 327 323 315 314 317 319 321 323 325 324 325 327 329 330 330 329 334 336 340 340 343 344 343 342 342 342 341 340 341 338 338
336 339 339 336 336 335 332 330 331 332 329 325 326 329 327 324 318 315 317 319 322 323 324 324 326 328 329 328 332 334 335 338 344 344 343 342 341 342 342 340 340 340 337
336 340 340 338 337 335 334 332 331 331 330 328 327 326 326 324 321 315 313 313 318 321 322 323 323 324 326 327 327 331 333 334 337 340 341 341 342 342 341 340 339 339 338
334 339 339 338 338 336 334 333 332 331 331 330 328 328 326 323 319 314 311 311 312 315 318 320 320 321 323 324 329 332 330 329 331 332 333 336 340 342 341 340 340 340 339
332 336 337 336 336 336 335 334 333 332 330 329 327 325 323 320 318 316 314 311 312 313 315 318 320 319 321 322 326 333 333 328 328 328 328 331 335 338 337 339 340 339 338
334 337 338 336 336 336 335 333 334 332 331 328 324 322 321 320 318 318 316 313 309 312 312 313 316 321 323 323 326 333 330 327 325 324 324 326 329 332 333 335 336 335 335
335 336 336 336 336 336 335 334 332 330 331 329 324 322 321 319 318 318 318 317 313 306 307 312 314 323 323 325 326 326 328 326 326 322 322 323 325 326 328 329 329 329 330
335 335 334 334 334 334 334 334 329 331 329 324 323 322 320 320 319 320 320 320 317 311 307 312 315 324 325 328 329 325 326 326 323 321 321 321 321 323 324 325 325 326 327
334 335 335 334 333 333 334 331 327 327 325 323 322 322 321 321 319 321 323 320 316 313 310 313 320 326 325 327 326 323 324 324 322 321 322 320 319 320 320 321 322 323 323
335 336 335 335 335 333 331 328 327 327 325 322 321 321 321 323 321 324 322 320 316 314 313 312 320 324 323 325 324 323 324 326 324 322 320 319 318 318 318 317 317 317 318
335 336 336 335 334 332 328 327 328 326 324 322 321 321 321 321 320 322 319 321 317 317 314 315 319 323 324 324 322 323 322 322 323 322 318 319 317 317 317 315 314 314 313
335 335 335 334 333 331 329 327 324 323 322 322 321 321 321 320 319 320 320 321 316 315 315 319 321 319 321 322 321 319 317 320 319 321 319 318 318 318 316 316 316 315 311
334 334 332 331 330 327 327 325 324 322 321 320 319 320 320 321 320 320 323 320 317 315 320 319 318 318 319 319 318 318 316 317 317 319 319 319 321 320 318 316 319 316 310
329 328 327 325 322 321 306 309 319 321 320 318 318 317 318 317 317 314 314 315 319 320 319 319 318 316 318 316 318 318 317 317 313 320 317 315 321 318 318 318 313 310 308
325 322 321 320 316 315 302 304 309 320 319 318 318 320 321 323 320 322 312 311 310 311 316 321 319 319 317 318 319 317 314 313 313 316 318 313 318 316 318 315 308 307 306
322 318 317 316 316 312 301 302 308 317 316 316 320 321 321 320 321 321 320 321 321 320 320 321 323 319 318 321 320 319 314 314 316 316 318 312 315 314 316 315 306 306 305
318 317 317 316 317 314 301 301 312 315 315 316 320 320 321 321 308 306 321 319 318 315 307 307 306 304 301 305 313 318 314 314 312 313 316 315 315 313 314 313 313 306 304
318 319 315 316 312 315 300 301 312 317 317 318 317 316 303 313 300 301 322 320 316 314 314 314 311 306 308 308 307 319 317 313 309 312 316 313 314 314 311 315 313 312 309

GFSMA_sfc_thetae_060.txt.gz
Theta_e
333 332 334 333 334 334 333 333 334 335 337 338 339 338 337 337 337 336 336 341 344 346 347 349 348 345 345 344 345 347 349 347 347 346 345 344 343 344 343 342 341 340 342
331 330 330 330 330 332 332 332 332 333 334 336 337 337 338 337 337 336 337 338 342 345 348 348 347 346 342 341 344 344 348 346 346 346 345 344 343 343 342 342 343 342 343
332 331 329 329 330 330 331 331 331 331 332 333 334 335 337 336 336 336 338 340 341 344 347 347 347 342 341 338 345 345 345 346 344 346 345 344 344 342 343 344 342 342 342
333 331 330 328 329 329 330 330 329 329 329 329 331 332 333 334 335 336 339 340 340 339 344 346 343 338 340 344 342 344 344 345 345 344 345 345 344 343 343 343 341 342 342
334 331 330 329 328 328 328 329 328 329 326 328 329 330 332 333 335 337 339 340 340 338 342 342 343 343 342 344 343 343 344 345 344 344 344 345 344 341 342 342 341 342 342
334 332 332 331 329 328 327 327 328 328 328 329 329 330 331 332 333 335 337 339 340 338 340 338 340 341 343 344 344 343 342 343 343 345 344 344 344 340 341 341 342 341 342
337 334 334 332 330 329 329 328 328 328 327 329 328 328 330 331 332 334 335 336 336 337 337 337 336 337 336 341 342 342 342 342 343 344 343 342 343 343 342 341 341 341 341
339 336 335 333 331 330 329 329 328 326 328 329 327 327 325 327 329 332 333 333 334 334 335 336 335 335 336 337 339 340 341 341 342 343 343 342 343 343 341 341 340 340 340
341 340 337 336 333 332 329 329 329 328 327 328 331 329 320 320 323 326 328 329 331 331 333 334 335 335 336 336 336 338 340 340 340 341 344 342 343 342 342 341 340 339 337
341 341 339 337 335 334 332 331 331 331 332 327 328 330 330 328 322 319 323 325 328 329 331 331 333 333 334 335 335 335 335 337 339 342 344 343 342 342 342 340 339 339 337
336 339 339 337 336 335 335 333 332 332 333 330 329 329 329 327 325 323 319 323 325 327 329 330 331 331 332 334 334 334 334 333 335 338 340 343 342 341 341 341 339 338 338
333 336 338 338 337 336 335 334 334 334 332 332 331 331 328 326 323 321 318 319 321 324 325 327 328 329 330 332 332 332 330 329 329 331 333 336 339 340 342 341 339 340 340
331 334 337 336 337 338 337 336 335 335 331 332 330 330 330 328 327 324 323 319 320 320 324 325 327 328 328 329 330 331 333 328 326 326 329 330 334 337 340 338 339 340 339
331 336 337 338 338 339 338 337 336 335 334 332 330 328 328 327 326 326 324 321 316 318 320 323 324 327 330 329 329 329 334 327 324 324 324 326 329 332 333 335 335 336 336
333 336 338 338 338 339 338 336 335 335 333 331 329 329 328 326 326 325 325 324 322 315 315 320 322 326 329 330 331 334 335 328 326 322 322 323 324 327 328 329 329 329 330
336 336 337 338 338 338 337 335 335 333 332 331 329 327 326 326 325 325 325 324 322 320 317 319 322 326 329 329 331 331 332 326 322 320 322 319 320 322 324 325 326 326 327
336 336 337 337 337 336 335 335 334 332 331 328 327 327 326 326 325 325 326 325 322 321 319 320 323 328 327 328 326 326 328 327 325 321 320 319 318 319 322 322 322 323 324
336 337 337 337 337 336 334 334 331 330 329 327 326 326 325 325 325 326 326 325 324 321 321 319 322 326 323 325 326 324 325 325 326 321 319 318 316 316 317 317 318 319 318
336 337 337 336 335 335 333 332 331 330 329 328 327 326 326 326 325 326 326 324 323 321 322 322 321 325 324 325 323 322 323 323 324 322 318 317 316 317 316 315 316 315 313
336 336 337 337 335 334 333 331 330 329 328 327 326 326 326 326 326 325 325 324 322 321 321 323 322 322 322 322 324 320 319 322 320 321 320 318 318 318 317 316 316 317 311
336 337 335 335 335 334 331 329 329 327 326 325 325 324 325 325 321 322 326 324 321 320 322 320 319 319 319 319 320 321 319 320 319 322 321 322 321 322 320 316 320 317 310
334 335 335 333 331 327 307 310 322 326 325 324 323 323 324 318 315 312 314 315 320 321 321 319 319 318 319 320 321 320 319 319 316 322 320 317 324 321 322 325 313 309 308
332 330 328 326 323 318 302 304 309 326 324 323 322 322 323 323 320 323 313 312 312 311 317 325 320 320 319 322 321 319 322 319 317 319 321 314 319 319 321 317 308 307 306
327 324 322 321 319 312 301 301 308 323 323 322 322 323 323 322 322 323 322 322 320 323 324 323 326 325 326 324 323 320 318 317 319 319 323 314 318 316 319 320 306 306 305
322 321 320 319 318 313 300 301 314 320 320 321 323 323 323 322 308 305 322 321 319 319 308 307 308 304 303 307 314 319 318 318 315 316 320 319 317 314 316 317 319 306 304
319 320 318 320 312 315 298 300 314 320 319 320 320 318 305 315 300 301 321 320 317 315 315 315 314 307 310 311 307 323 321 318 316 314 320 317 317 315 314 318 320 320 315

GFSMA_sfc_thetae_063.txt.gz
Theta_e
348 348 348 347 345 345 343 341 340 340 340 341 339 339 337 338 339 339 338 341 342 345 348 349 349 351 349 347 346 346 349 348 348 348 347 345 344 345 344 343 342 342 342
348 345 345 344 343 343 341 339 338 339 338 338 338 339 339 339 339 340 338 338 342 345 346 349 350 350 348 346 342 343 346 347 347 347 346 345 344 344 343 342 344 342 342
345 345 342 341 340 341 341 340 340 339 337 338 337 338 339 340 341 342 342 339 339 343 345 347 350 350 348 344 339 341 345 346 346 346 346 345 344 343 344 343 342 342 342
342 342 337 338 338 339 337 336 336 335 336 336 336 338 339 341 342 343 342 341 343 344 346 346 348 348 347 345 343 344 346 346 345 345 345 345 344 343 343 343 343 343 342
340 338 337 340 341 337 335 336 336 337 336 337 336 338 339 340 342 341 342 344 347 347 347 345 346 345 344 343 343 345 345 345 344 344 344 345 345 345 343 343 343 343 341
338 339 338 340 341 337 337 337 338 338 338 339 336 336 340 340 341 342 343 344 346 348 349 350 350 345 344 345 345 344 344 345 344 343 344 344 344 344 343 343 343 342 342
339 340 340 340 341 340 341 341 340 338 338 339 336 336 338 341 342 342 344 344 344 347 348 348 347 345 344 341 343 344 344 342 343 344 343 342 343 344 341 342 343 342 341
344 340 337 341 341 340 343 342 340 338 339 340 336 336 332 335 339 342 343 343 345 345 345 345 345 345 345 344 344 342 343 342 342 344 343 342 343 343 343 342 342 341 341
348 347 346 345 345 343 342 343 341 342 338 338 340 338 330 327 335 338 341 341 343 342 343 344 344 344 345 344 343 341 341 342 341 342 341 342 343 343 343 343 341 340 339
348 349 350 347 346 345 347 345 343 343 342 338 336 338 339 338 329 327 335 337 339 340 342 341 341 342 343 343 342 341 338 338 340 342 342 342 343 342 343 342 339 339 338
351 350 352 349 348 347 348 346 343 341 342 341 338 338 335 335 335 329 327 331 333 337 339 339 340 340 342 342 342 340 335 334 336 337 339 341 343 342 342 342 339 339 337
348 351 351 350 350 348 347 346 345 343 343 343 342 339 333 331 332 331 330 331 329 335 335 337 337 337 339 339 338 335 331 331 330 331 334 338 340 342 342 341 340 338 338
342 346 349 349 347 348 349 347 345 344 345 342 341 337 340 339 337 335 333 331 329 333 333 335 337 338 338 339 339 333 333 329 327 326 329 331 335 337 338 340 340 339 339
343 349 347 348 348 348 348 347 345 344 345 342 338 339 336 336 338 337 334 331 327 327 330 331 335 337 339 337 337 329 337 328 325 323 325 327 330 332 334 335 336 335 336
343 346 346 346 348 348 348 348 346 346 345 343 341 336 336 338 339 338 337 334 328 322 324 328 329 333 335 339 337 338 338 329 326 322 323 323 326 327 328 328 330 330 331
343 344 345 347 348 349 349 349 348 348 347 343 337 336 336 339 338 337 336 334 332 328 322 330 332 330 333 335 335 337 339 329 324 322 323 321 321 322 324 324 325 327 327
343 343 345 346 348 349 349 349 348 346 343 337 339 339 340 340 337 336 334 333 332 330 325 328 327 331 332 334 329 331 333 338 333 320 320 321 318 319 320 321 322 324 324
342 342 344 345 348 348 349 347 345 343 340 336 336 339 338 336 338 337 334 335 333 332 330 328 327 327 326 329 327 326 330 334 336 322 319 317 316 317 318 318 318 319 319
342 342 344 345 347 347 346 346 344 341 336 337 340 339 338 337 336 334 335 334 332 331 330 328 325 327 326 327 325 325 328 329 329 322 317 316 316 316 317 317 317 316 315
342 343 345 346 347 346 345 344 342 336 336 340 340 340 338 337 336 336 334 334 333 330 329 329 326 324 323 327 324 323 323 326 325 327 321 321 320 317 316 317 317 316 314
342 344 345 346 347 345 342 341 335 335 339 339 338 336 337 334 326 330 334 334 333 330 328 326 322 323 322 321 323 322 322 323 324 327 326 326 325 326 324 318 321 318 312
342 344 344 345 344 341 310 316 330 340 339 337 335 335 335 323 322 312 314 319 328 330 325 326 324 322 322 323 325 325 320 320 319 326 325 324 329 323 324 326 316 313 308
340 342 344 344 343 334 306 308 314 338 336 336 336 335 333 331 325 329 313 311 313 312 319 327 327 326 324 328 328 325 326 326 321 322 324 320 325 323 326 318 310 307 306
340 341 339 334 330 315 302 303 309 337 336 335 335 335 334 332 330 326 330 330 327 322 326 329 332 332 331 329 329 328 329 329 325 324 332 319 320 320 323 320 307 307 305
334 334 328 328 328 319 300 303 320 335 333 332 333 333 333 331 309 306 327 325 323 321 310 310 311 308 305 309 320 326 320 323 320 320 324 321 319 319 321 322 321 307 304
325 326 324 329 317 319 299 302 321 330 329 327 329 328 308 321 300 301 327 325 320 317 320 318 320 312 314 315 309 325 326 323 320 317 326 325 323 320 320 327 324 328 326

GFSMA_sfc_thetae_069.txt.gz
Theta_e
357 354 355 348 349 347 346 346 345 346 343 343 342 340 339 340 340 339 340 350 347 347 347 350 349 349 352 353 351 349 349 348 350 350 349 348 347 346 344 345 345 343 343
360 351 352 348 346 345 343 344 346 345 344 344 342 343 343 344 343 346 341 343 347 346 347 346 349 351 351 353 351 349 348 346 349 349 349 348 347 346 346 345 345 345 344
361 358 348 348 346 349 350 347 345 346 342 344 346 344 344 345 344 349 345 343 343 345 346 346 348 350 352 353 352 350 348 347 347 348 348 347 347 346 345 345 346 345 344
362 360 350 348 349 348 344 342 342 341 342 340 346 345 346 348 349 351 347 346 346 344 344 346 347 350 352 351 350 349 347 344 346 347 347 347 347 346 345 345 345 345 343
357 356 351 349 357 345 345 343 343 343 342 346 346 346 348 347 351 347 350 351 351 344 342 344 345 348 350 351 349 350 348 346 345 346 346 346 346 346 345 345 345 344 344
351 356 348 352 349 343 340 339 345 342 343 344 344 346 350 348 350 351 351 349 348 348 349 350 348 347 347 349 349 349 348 347 347 346 345 345 345 345 345 345 345 344 344
349 354 347 348 347 344 347 344 341 346 343 349 346 345 347 353 351 350 351 349 349 348 349 350 351 349 344 346 346 348 348 348 346 346 344 343 344 344 345 345 345 345 344
351 351 351 346 349 346 349 349 350 344 345 350 345 342 334 341 348 350 350 349 348 349 348 349 351 351 348 345 347 346 346 346 348 346 344 342 343 344 344 345 345 344 344
351 353 351 349 350 351 344 349 355 355 342 348 356 343 332 330 336 349 351 346 354 349 345 346 347 349 346 347 348 348 345 344 346 347 345 343 343 344 344 344 343 343 344
350 347 348 350 353 350 348 355 357 354 355 345 348 349 350 348 336 331 343 346 347 348 353 346 351 344 350 349 348 347 342 342 345 346 344 344 344 344 345 343 343 343 343
353 349 340 342 352 354 354 357 358 357 353 349 345 345 346 345 349 339 333 339 343 343 345 347 344 345 344 345 344 344 338 338 339 340 341 343 344 343 345 344 343 343 341
355 356 351 350 352 358 357 361 364 363 357 356 351 349 343 340 339 339 335 338 338 343 342 342 346 341 342 344 344 339 337 334 334 334 336 337 341 342 344 343 343 342 340
342 361 362 360 359 362 362 363 363 363 361 354 357 348 347 346 345 340 338 337 333 340 338 339 342 339 341 342 344 340 336 333 330 329 331 332 336 338 341 341 342 340 340
339 351 365 362 365 364 362 365 359 358 359 355 358 353 348 347 347 346 341 337 333 333 335 339 340 338 341 345 339 337 338 330 328 326 326 328 331 334 336 337 337 337 337
341 344 355 361 361 362 365 365 357 358 358 357 355 358 352 349 351 346 347 339 335 331 328 336 336 342 339 342 336 341 339 330 329 325 324 325 327 329 330 331 331 331 331
349 352 352 353 358 360 363 364 358 358 355 353 351 355 355 351 349 347 345 340 340 332 325 333 334 341 341 339 338 340 341 331 327 324 324 323 323 324 325 326 326 327 328
348 348 350 352 353 357 361 361 357 353 354 355 355 355 352 356 344 343 343 342 337 335 328 334 337 341 337 337 337 338 339 342 336 323 323 322 319 320 321 322 322 324 325
346 345 346 347 349 352 358 356 353 349 353 352 351 353 350 347 350 351 342 346 341 341 331 335 337 334 334 338 337 334 334 340 341 324 321 320 317 316 316 316 318 320 320
344 343 343 346 346 349 353 354 352 351 353 353 352 349 347 348 349 348 344 341 336 337 337 332 335 333 332 334 329 331 333 338 336 323 319 320 318 316 316 315 316 317 316
342 341 345 344 347 349 350 352 352 355 355 353 354 351 347 347 345 345 345 344 343 338 339 339 333 331 329 334 330 326 326 335 332 333 325 323 320 317 315 315 317 317 314
343 340 342 344 351 351 348 353 354 355 354 350 351 347 349 342 333 339 339 343 344 336 337 336 335 329 326 328 327 330 330 328 331 334 331 332 332 325 320 316 322 320 312
344 341 344 347 351 347 320 322 343 354 350 347 346 346 345 332 329 318 320 321 332 339 337 336 336 328 329 329 337 330 328 325 322 333 332 328 334 327 324 327 318 313 312
344 346 348 352 352 353 312 313 320 352 348 347 348 345 342 339 334 338 316 317 318 317 319 338 333 335 332 331 335 330 329 331 330 329 330 327 330 327 327 323 312 309 308
342 345 350 351 353 349 308 311 316 351 348 347 345 344 342 340 337 336 336 334 334 335 333 334 339 338 338 338 337 338 335 335 332 331 336 323 324 323 325 323 309 308 307
341 345 349 349 350 339 305 310 327 346 343 342 341 340 339 339 315 312 336 334 334 332 311 308 309 306 308 310 324 336 333 328 324 326 335 324 322 321 323 319 317 309 307
342 347 348 350 334 340 303 309 324 341 340 336 338 332 310 329 305 306 335 334 330 330 327 327 328 322 315 321 313 332 335 328 323 323 332 328 322 322 320 324 322 318 317

GFSMA_sfc_thetae_072.txt.gz
Theta_e
351 353 354 351 351 349 346 344 342 345 342 342 341 341 339 339 341 340 339 351 349 349 351 349 349 351 353 353 352 351 350 349 349 350 350 349 347 346 347 346 345 343 342
355 355 356 354 351 352 349 346 346 346 344 342 342 343 342 342 343 343 341 344 348 347 349 351 351 351 352 353 352 351 350 348 347 349 348 349 348 347 346 346 346 345 344
357 354 354 351 350 350 352 351 349 348 344 345 344 344 346 344 344 344 345 343 343 347 347 348 350 352 353 355 353 351 349 348 346 346 348 348 348 346 346 346 346 346 344
359 360 353 350 350 353 350 346 345 342 341 340 340 340 344 345 344 347 345 345 344 343 345 347 348 348 352 353 353 352 349 347 346 345 346 347 347 346 346 345 345 345 344
356 354 352 350 354 349 349 347 343 341 340 342 339 345 348 347 348 347 347 347 347 346 344 345 346 346 349 352 352 350 350 347 344 345 346 346 347 346 346 345 345 344 344
355 354 352 353 355 348 345 343 340 343 342 341 340 341 348 348 349 348 348 350 346 348 344 344 342 342 346 349 349 348 350 349 346 345 345 345 345 345 345 345 345 344 343
351 352 351 349 351 346 344 342 341 342 340 340 344 343 346 350 348 346 350 349 346 345 345 346 344 344 344 346 346 348 348 349 347 345 343 343 344 344 345 345 344 344 343
347 348 348 347 345 343 344 344 345 337 339 344 342 342 336 339 344 347 346 345 347 345 344 346 346 347 347 344 342 345 347 347 347 346 343 342 342 344 344 344 344 344 344
345 345 347 344 347 345 340 346 344 343 336 342 347 342 333 330 339 345 345 345 345 346 344 344 345 345 348 344 343 344 344 345 346 347 345 342 343 344 344 344 343 343 344
342 344 345 345 345 341 345 345 344 341 343 340 345 348 347 343 333 333 343 344 345 345 345 345 343 344 345 342 347 346 342 343 345 345 345 343 344 343 344 343 343 342 343
346 345 346 343 342 344 340 344 341 344 346 344 341 344 344 343 343 337 332 336 340 342 345 345 341 343 343 342 340 342 338 339 340 341 341 341 343 342 344 343 343 343 342
346 350 345 346 345 346 344 341 345 347 347 345 341 346 344 340 337 338 336 334 333 338 341 344 343 339 341 340 342 339 337 335 334 334 336 337 339 341 341 344 343 342 342
340 344 346 343 341 342 343 342 347 348 348 345 344 348 348 344 344 340 337 334 331 337 337 342 339 341 339 337 340 340 338 333 330 329 330 332 335 337 339 340 342 342 342
333 340 352 348 347 348 348 351 352 352 353 351 351 352 347 347 344 342 341 335 329 331 334 332 338 339 338 338 337 337 334 331 328 326 326 328 330 332 334 336 337 337 338
336 340 339 344 357 355 355 354 353 354 355 355 353 352 351 346 347 347 344 339 333 326 326 332 332 339 338 337 334 337 337 330 329 325 324 325 326 328 330 330 332 331 331
338 339 340 344 356 355 356 356 356 356 354 354 353 350 349 348 349 346 343 340 337 333 326 332 333 337 337 338 334 335 335 330 327 324 324 322 323 324 325 326 327 327 328
340 339 339 341 342 347 353 354 354 354 352 352 350 348 347 349 348 344 343 340 338 337 328 329 336 337 334 332 333 334 334 335 329 324 323 322 320 320 321 321 322 324 324
339 339 339 341 342 345 347 348 350 354 351 349 347 346 348 349 348 345 342 339 336 335 331 327 332 332 330 333 330 331 330 335 334 324 321 318 317 316 315 316 318 320 320
336 336 340 339 340 342 346 350 352 353 348 347 348 347 348 348 345 343 342 339 338 337 334 330 330 331 329 330 326 326 328 331 329 325 320 320 318 316 315 315 315 316 315
331 333 334 340 338 341 342 348 352 351 347 348 349 349 348 347 343 344 341 338 337 334 334 332 330 327 326 329 327 324 324 329 328 328 322 321 320 317 315 314 316 316 313
330 332 333 337 339 340 343 344 349 349 346 347 348 350 347 343 336 340 341 337 336 334 332 330 328 327 323 325 324 325 325 326 328 329 328 325 325 322 318 314 320 319 312
327 329 331 336 339 339 324 320 340 348 347 346 345 345 340 331 328 324 323 323 333 335 331 329 327 325 324 325 328 326 323 321 319 329 327 326 327 323 322 322 316 311 310
327 329 332 336 338 339 317 312 321 347 347 346 345 344 339 338 332 330 315 319 318 319 323 332 327 326 326 326 328 326 325 323 322 326 328 322 327 322 324 320 310 308 308
327 330 332 336 338 340 308 309 316 347 346 346 345 343 341 338 337 336 333 332 332 329 328 330 332 330 330 331 331 329 326 326 327 326 328 319 323 321 324 322 308 308 308
326 330 331 335 338 341 304 307 327 344 343 343 343 342 340 337 315 315 334 331 331 324 310 308 309 307 308 309 322 329 325 323 320 323 327 321 320 320 321 320 314 309 307
328 330 329 334 332 341 306 307 328 342 340 339 339 329 314 328 303 309 333 332 328 326 324 325 324 318 315 317 311 329 327 322 320 319 326 319 319 320 318 322 319 314 313

GFSMA_sfc_thetae_075.txt.gz
Theta_e
340 338 340 340 341 341 341 338 336 335 335 335 333 334 332 333 332 333 336 351 349 350 352 352 350 351 352 353 352 352 350 349 348 348 348 349 348 347 347 346 344 343 343
339 343 340 344 343 343 343 340 337 336 337 336 335 336 336 335 335 336 336 342 348 348 350 353 353 351 351 352 353 352 350 349 348 347 347 347 347 347 347 347 345 344 344
346 340 345 342 342 342 342 340 339 340 338 338 335 335 337 337 336 337 337 337 343 348 348 349 352 353 353 353 354 353 351 347 347 346 347 345 347 347 345 346 347 345 344
346 349 344 344 342 341 340 338 335 332 332 333 331 332 333 335 337 338 338 339 338 340 346 348 349 351 353 353 354 354 350 346 345 344 345 345 346 347 346 345 346 346 343
351 347 347 344 343 341 340 339 335 333 331 333 334 333 334 337 340 341 339 340 339 340 339 344 348 348 349 350 353 354 352 347 345 344 344 345 346 347 346 346 345 345 344
350 348 347 344 343 342 339 335 332 333 333 332 336 335 334 340 340 340 340 343 342 342 341 339 341 343 346 348 350 352 351 348 346 344 343 344 345 346 346 346 345 345 344
350 348 344 344 345 341 336 334 332 330 329 332 329 332 338 340 341 343 343 341 342 342 341 339 340 341 341 345 346 348 350 349 347 345 342 341 343 345 346 345 345 345 343
344 349 347 344 342 338 337 335 333 331 331 334 332 333 330 329 334 343 341 342 342 342 340 340 341 339 339 339 339 344 348 348 349 347 343 340 341 343 344 345 345 344 343
340 342 344 344 341 340 337 336 337 335 331 332 336 333 325 321 331 336 340 339 339 340 340 339 342 342 342 343 343 344 345 345 348 347 345 341 342 344 343 344 344 343 344
337 338 342 343 341 341 339 337 337 337 333 329 336 342 340 336 326 323 336 339 339 340 340 339 339 341 342 341 343 342 341 341 346 346 343 344 343 344 342 342 342 343 343
340 339 339 341 342 340 340 339 338 339 337 335 337 332 327 324 324 324 324 330 335 338 339 338 340 338 339 339 337 339 339 338 339 340 340 342 342 343 343 342 340 342 343
339 342 341 342 340 341 341 337 338 338 337 338 341 332 324 329 331 333 332 331 328 331 336 339 338 337 336 336 339 338 335 335 333 334 334 336 338 340 340 342 343 342 342
329 340 343 341 340 342 341 341 338 341 341 341 341 336 333 334 337 338 335 329 328 329 331 335 337 336 336 333 334 336 336 331 330 328 330 331 334 335 337 339 342 342 342
326 329 334 343 343 343 342 342 339 337 339 342 342 338 335 338 343 340 334 330 322 323 326 327 331 334 334 333 334 336 333 330 328 326 325 326 329 331 333 334 336 337 338
330 330 332 335 340 343 341 340 338 337 341 344 344 344 342 344 343 340 336 332 324 318 320 325 326 332 332 331 332 331 332 329 328 324 323 323 325 326 328 329 330 330 331
331 331 331 330 333 336 348 350 348 348 346 349 350 349 348 347 340 340 337 333 330 325 320 325 327 329 332 331 333 331 331 329 326 323 323 322 322 323 324 325 326 327 328
330 332 333 334 333 333 337 349 350 350 348 349 350 348 346 345 340 336 337 332 329 328 324 323 328 329 327 328 328 328 330 328 329 323 323 321 319 320 320 321 322 324 325
329 331 334 333 334 335 334 336 344 349 347 347 347 346 344 344 340 339 334 331 330 330 325 324 325 324 326 325 324 323 327 332 329 325 322 318 316 316 315 316 318 319 319
324 326 329 331 332 335 335 336 340 341 343 348 347 344 343 340 340 341 335 331 331 331 328 326 323 323 323 323 320 321 322 324 326 323 319 319 317 316 314 314 314 315 315
322 322 324 327 329 330 334 336 337 343 343 346 346 344 343 343 342 339 335 333 331 328 327 324 322 320 320 321 320 317 319 325 320 325 321 320 319 317 315 313 315 315 312
317 320 321 323 327 329 331 334 336 337 344 344 342 345 343 341 335 336 337 332 329 326 324 322 320 318 317 319 317 318 321 323 326 323 320 319 320 321 318 314 319 319 311
315 319 322 322 323 326 318 316 320 337 343 343 341 343 340 331 329 324 325 326 327 326 324 321 319 318 317 318 320 319 318 317 317 327 325 323 322 322 322 321 315 312 309
311 313 316 319 322 326 314 312 314 324 339 342 339 337 334 337 330 330 321 320 321 320 324 324 321 320 319 320 321 320 319 317 316 320 325 321 324 321 323 322 311 308 307
310 312 314 318 324 327 313 310 311 322 337 339 339 338 333 329 328 328 327 325 324 323 323 328 325 324 324 324 325 325 322 320 321 323 323 318 321 320 323 321 308 307 306
308 311 314 318 323 327 313 310 310 323 334 338 338 337 335 331 313 317 328 325 322 317 309 309 311 308 306 308 320 324 320 319 317 318 322 318 318 318 320 320 316 308 307
310 312 315 317 320 324 314 307 308 326 334 335 333 330 317 328 305 308 327 325 320 316 318 318 318 314 312 313 308 323 323 321 318 317 320 315 318 319 316 320 318 313 312